• In Netherlands
  • List of Countries
  • For 7 days
  • Water Temperature
  • Satellite Maps
  • Weather Map
  • Weather Widgets
  • user-avatar
    Login

    Hourly Weather Stepanakert

    Today, 17 November, Friday

    Time Temperature Precipitation Wind Pressure Humidity
    00:00 +9°C° 0 mm 1 mps 697 mmHg 67%
    01:00 +9°C° 0 mm 1 mps 697 mmHg 69%
    02:00 +9°C° 0 mm 1 mps 697 mmHg 71%
    03:00 +8°C° 0 mm 1 mps 697 mmHg 71%
    04:00 +8°C° 0 mm 1 mps 697 mmHg 71%
    05:00 +8°C° 0 mm 1 mps 697 mmHg 72%
    06:00 +8°C° 0 mm 1 mps 697 mmHg 73%
    07:00 +9°C° 0 mm 1 mps 697 mmHg 70%
    08:00 +10°C° 0 mm 1 mps 697 mmHg 67%
    09:00 +11°C° 0 mm 1 mps 698 mmHg 64%
    10:00 +12°C° 0 mm 1 mps 698 mmHg 62%
    11:00 +13°C° 0 mm 2 mps 697 mmHg 60%
    12:00 +14°C° 0 mm 2 mps 697 mmHg 58%
    13:00 +13°C° 0 mm 2 mps 697 mmHg 60%
    14:00 +13°C° 0 mm 2 mps 697 mmHg 62%
    15:00 +13°C° 0 mm 2 mps 697 mmHg 64%
    16:00 +12°C° 0 mm 2 mps 697 mmHg 69%
    17:00 +10°C° 0 mm 2 mps 697 mmHg 75%
    18:00 +10°C° 0 mm 1 mps 697 mmHg 81%
    19:00 +10°C° 0 mm 1 mps 697 mmHg 81%
    20:00 +10°C° 0 mm 1 mps 697 mmHg 82%
    21:00 +10°C° 0 mm 1 mps 697 mmHg 83%
    22:00 +9°C° 0.1 mm 1 mps 697 mmHg 84%
    23:00 +9°C° 0.1 mm 1 mps 697 mmHg 84%

    Tomorrow, 18 November, Saturday

    Time Temperature Precipitation Wind Pressure Humidity
    00:00 +9°C° 0.1 mm 1 mps 697 mmHg 85%
    01:00 +9°C° 0.1 mm 1 mps 697 mmHg 85%
    02:00 +9°C° 0.1 mm 1 mps 697 mmHg 85%
    03:00 +9°C° 0.1 mm 1 mps 697 mmHg 85%
    04:00 +9°C° 0 mm 1 mps 697 mmHg 85%
    05:00 +9°C° 0 mm 1 mps 697 mmHg 84%
    06:00 +8°C° 0 mm 1 mps 697 mmHg 84%
    07:00 +9°C° 0 mm 1 mps 697 mmHg 81%
    08:00 +10°C° 0 mm 1 mps 698 mmHg 78%
    09:00 +11°C° 0 mm 1 mps 698 mmHg 75%
    10:00 +10°C° 0 mm 2 mps 697 mmHg 72%
    11:00 +12°C° 0 mm 2 mps 697 mmHg 69%
    12:00 +13°C° 0 mm 2 mps 697 mmHg 66%
    13:00 +13°C° 0 mm 2 mps 697 mmHg 67%
    14:00 +12°C° 0 mm 2 mps 696 mmHg 67%
    15:00 +12°C° 0 mm 2 mps 696 mmHg 68%
    16:00 +12°C° 0 mm 1 mps 696 mmHg 72%
    17:00 +11°C° 0 mm 1 mps 696 mmHg 76%
    18:00 +10°C° 0 mm 1 mps 696 mmHg 81%
    19:00 +9°C° 0 mm 1 mps 696 mmHg 78%
    20:00 +9°C° 0 mm 1 mps 696 mmHg 75%
    21:00 +9°C° 0 mm 1 mps 696 mmHg 73%
    22:00 +9°C° 0 mm 1 mps 696 mmHg 71%
    23:00 +9°C° 0 mm 1 mps 695 mmHg 69%

    Day after tomorrow, 19 November, Sunday

    Time Temperature Precipitation Wind Pressure Humidity
    00:00 +9°C° 0 mm 1 mps 695 mmHg 67%
    01:00 +9°C° 0 mm 1 mps 695 mmHg 65%
    02:00 +8°C° 0 mm 1 mps 695 mmHg 63%
    03:00 +8°C° 0 mm 1 mps 695 mmHg 62%
    04:00 +8°C° 0 mm 1 mps 695 mmHg 60%
    05:00 +8°C° 0 mm 1 mps 694 mmHg 59%
    06:00 +8°C° 0 mm 1 mps 694 mmHg 57%
    07:00 +10°C° 0 mm 1 mps 694 mmHg 54%
    08:00 +11°C° 0 mm 1 mps 695 mmHg 50%
    09:00 +13°C° 0 mm 1 mps 695 mmHg 46%
    10:00 +14°C° 0 mm 1 mps 695 mmHg 44%
    11:00 +15°C° 0 mm 1 mps 694 mmHg 41%
    12:00 +16°C° 0 mm 2 mps 694 mmHg 38%
    13:00 +16°C° 0 mm 2 mps 694 mmHg 40%
    14:00 +15°C° 0 mm 2 mps 693 mmHg 41%
    15:00 +15°C° 0 mm 2 mps 693 mmHg 43%
    16:00 +14°C° 0 mm 1 mps 693 mmHg 46%
    17:00 +13°C° 0 mm 1 mps 693 mmHg 50%
    18:00 +12°C° 0 mm 1 mps 692 mmHg 54%
    19:00 +12°C° 0 mm 1 mps 692 mmHg 53%
    20:00 +12°C° 0 mm 1 mps 693 mmHg 51%
    21:00 +12°C° 0 mm 1 mps 693 mmHg 50%
    22:00 +11°C° 0 mm 1 mps 692 mmHg 50%
    23:00 +11°C° 0 mm 1 mps 692 mmHg 49%

    20 November, Monday

    Time Temperature Precipitation Wind Pressure Humidity
    00:00 +10°C° 0 mm 2 mps 692 mmHg 49%
    01:00 +10°C° 0 mm 2 mps 692 mmHg 48%
    02:00 +10°C° 0 mm 2 mps 692 mmHg 48%
    03:00 +10°C° 0 mm 2 mps 692 mmHg 47%
    04:00 +9°C° 0 mm 2 mps 692 mmHg 48%
    05:00 +9°C° 0 mm 2 mps 692 mmHg 48%
    06:00 +9°C° 0 mm 2 mps 692 mmHg 49%
    07:00 +12°C° 0 mm 2 mps 692 mmHg 46%
    08:00 +13°C° 0 mm 2 mps 693 mmHg 43%
    09:00 +15°C° 0 mm 2 mps 693 mmHg 40%
    10:00 +16°C° 0 mm 2 mps 693 mmHg 37%
    11:00 +17°C° 0 mm 2 mps 692 mmHg 34%
    12:00 +18°C° 0 mm 2 mps 692 mmHg 31%
    13:00 +18°C° 0 mm 2 mps 692 mmHg 32%
    14:00 +18°C° 0 mm 2 mps 692 mmHg 33%
    15:00 +18°C° 0 mm 2 mps 691 mmHg 34%
    16:00 +16°C° 0 mm 2 mps 691 mmHg 38%
    17:00 +14°C° 0 mm 1 mps 691 mmHg 43%
    18:00 +13°C° 0 mm 1 mps 691 mmHg 47%
    19:00 +13°C° 0 mm 1 mps 691 mmHg 47%
    20:00 +12°C° 0 mm 1 mps 690 mmHg 47%
    21:00 +12°C° 0 mm 1 mps 690 mmHg 48%
    22:00 +12°C° 0 mm 1 mps 690 mmHg 48%
    23:00 +12°C° 0 mm 2 mps 690 mmHg 48%

    21 November, Tuesday

    Time Temperature Precipitation Wind Pressure Humidity
    00:00 +12°C° 0 mm 2 mps 690 mmHg 48%
    01:00 +10°C° 0 mm 2 mps 689 mmHg 49%
    02:00 +10°C° 0 mm 2 mps 689 mmHg 49%
    03:00 +10°C° 0 mm 2 mps 689 mmHg 49%
    04:00 +11°C° 0 mm 1 mps 689 mmHg 50%
    05:00 +11°C° 0 mm 1 mps 689 mmHg 50%
    06:00 +11°C° 0 mm 1 mps 689 mmHg 50%
    07:00 +12°C° 0 mm 1 mps 689 mmHg 48%
    08:00 +13°C° 0 mm 1 mps 689 mmHg 46%
    09:00 +14°C° 0 mm 1 mps 689 mmHg 43%
    10:00 +15°C° 0 mm 1 mps 689 mmHg 41%
    11:00 +16°C° 0 mm 2 mps 689 mmHg 38%
    12:00 +17°C° 0 mm 2 mps 688 mmHg 35%
    13:00 +17°C° 0 mm 2 mps 688 mmHg 37%
    14:00 +16°C° 0 mm 2 mps 688 mmHg 38%
    15:00 +16°C° 0 mm 2 mps 687 mmHg 40%
    16:00 +15°C° 0 mm 1 mps 687 mmHg 44%
    17:00 +14°C° 0 mm 1 mps 687 mmHg 47%
    18:00 +13°C° 0 mm 1 mps 687 mmHg 51%
    19:00 +13°C° 0 mm 1 mps 687 mmHg 52%
    20:00 +12°C° 0 mm 1 mps 687 mmHg 53%
    21:00 +12°C° 0 mm 1 mps 687 mmHg 54%
    22:00 +12°C° 0 mm 1 mps 687 mmHg 54%
    23:00 +12°C° 0 mm 1 mps 687 mmHg 55%

    22 November, Wednesday

    Time Temperature Precipitation Wind Pressure Humidity
    00:00 +12°C° 0 mm 1 mps 686 mmHg 55%
    01:00 +12°C° 0 mm 1 mps 686 mmHg 55%
    02:00 +11°C° 0 mm 1 mps 686 mmHg 55%
    03:00 +11°C° 0 mm 1 mps 686 mmHg 55%
    04:00 +11°C° 0 mm 1 mps 686 mmHg 55%
    05:00 +11°C° 0 mm 1 mps 686 mmHg 55%
    06:00 +11°C° 0 mm 1 mps 686 mmHg 56%
    07:00 +12°C° 0 mm 1 mps 687 mmHg 53%
    08:00 +13°C° 0 mm 1 mps 687 mmHg 50%
    09:00 +13°C° 0 mm 0 mps 688 mmHg 47%
    10:00 +14°C° 0 mm 1 mps 687 mmHg 47%
    11:00 +15°C° 0 mm 1 mps 687 mmHg 46%
    12:00 +15°C° 0 mm 2 mps 687 mmHg 46%
    13:00 +15°C° 0.2 mm 2 mps 687 mmHg 50%
    14:00 +14°C° 0.2 mm 2 mps 687 mmHg 53%
    15:00 +13°C° 0.2 mm 1 mps 687 mmHg 56%
    16:00 +13°C° 0.3 mm 1 mps 687 mmHg 61%
    17:00 +12°C° 0.3 mm 1 mps 687 mmHg 65%
    18:00 +11°C° 0.3 mm 1 mps 687 mmHg 70%
    19:00 +11°C° 0.6 mm 1 mps 688 mmHg 73%
    20:00 +10°C° 0.6 mm 1 mps 688 mmHg 76%
    21:00 +9°C° 0.6 mm 2 mps 688 mmHg 79%
    22:00 +10°C° 0.5 mm 1 mps 688 mmHg 80%
    23:00 +9°C° 0.5 mm 1 mps 689 mmHg 80%
    Show more